カタログに戻る

CZ-4C DEB

運用中SSO
NORAD 38657·DEBRIS·🇨🇳 China

打ち上げ Dec 15, 2009 から Taiyuan Satellite Launch Center

Loading…

次のパス (今後24時間)

TLE

最新Source: Space-Track

元期: Sep 12, 2026, 11:34 UTC

1 38657U 09072E   26255.48195812  .00000101  00000-0  32955-3 0  9994
2 38657 100.2644 344.3176 0133373 200.2223 224.6936 13.23068640804059

AllMySatでCZ-4C DEBをリアルタイム追跡

Download on the App Store